{"data":{"norad_id":62650,"intl_designator":"2025-009AT","name":"FLOCK 4G-34","alt_names":[],"object_type":"PAYLOAD","status":"ACTIVE","operator":null,"country":"US","launch_date":"2025-01-14","launch_site_code":"AFWTR","launch_vehicle":null,"mission":null,"orbit_class":"UNKNOWN","rcs_meters":null,"size_class":null,"mass_kg":null,"dimensions":null,"purposes":["earth_obs"],"wikipedia_slug":null,"has_3d_model":false,"image_url":null,"decayed_at":null,"tle_current":{"epoch":"2026-09-19T22:56:10.902336Z","epoch_age_seconds":65369,"freshness":"FRESH","line1":"1 62650U 25009AT  26262.95568174  .00007439  00000+0  25306-3 0  9999","line2":"2 62650  97.3905 344.1019 0001594  19.7573 340.3730 15.30727123 93404","mean_motion":15.30727123,"eccentricity":0.0001594,"inclination_deg":97.3905,"raan_deg":344.1019,"arg_perigee_deg":19.7573,"mean_anomaly_deg":340.373,"bstar":0.00025306,"rev_number":9340,"period_min":94.072939478449,"perigee_km":472.54945331678,"apogee_km":474.73380034302,"semimajor_km":6851.7786268299,"source":"CELESTRAK","updated_at":"2026-09-20T09:00:34.720713Z"}}}